Location: Devore Heights
(34.2372°N, 117.4156°W)
Time: 16:25:27
(UTC+00:00)

Tiros 1 despin weight - Pass Details

Date: 17 September 2024
Orbit: 573 x 615 km, 48.2° (Epoch: 04 October)

Event Time Altitude Azimuth Distance (km) Brightness Sun altitude
Exits shadow 10:31:42 15° 33° (NNE) 1,682 ? -36.5°
Drops below altitude 10° 10:32:34 10° 39° (NE) 1,979 ? -36.4°
Sets 10:35:03 0° 48° (NE) 2,889 ? -36.0°
